Hourly Data Report for October 02, 2017

All times are specified in Local Standard Time (LST). Add 1 hour to adjust for Daylight Saving Time where and when it is observed.

BORDEN AWOS
ONTARIO

44°16'20.000" N
79°54'42.000" W
222.50 m
611B002
71534
YBN

Download Data

Hourly Data (October 2017)
Hourly Data Report for October 2, 2017
Temp Definition
°C
Dew Point Temp Definition
°C
Rel Hum Definition
%
Wind Dir Definition
10's deg

Wind Spd Definition
km/h
Visibility Definition
km
Stn Press Definition
kPa
Hmdx Definition


Wind Chill Definition


Weather Definition


TIME
00:00 2.5 2.0 96   0 14.5 100.04     LegendNANA
01:00 0.9 0.9 100   0 4.0 100.06     LegendNANA
02:00 0.2 -0.1 98   0 4.0 100.07     LegendNANA
03:00 0.2 -0.4 96   0 14.5 100.07     LegendNANA
04:00 -0.7 -1.0 98   0 14.5 100.11     LegendNANA
05:00 -1.1 -1.2 99   0 1.8 100.16     LegendNANA
06:00 -0.6 -1.1 96   0 14.5 100.21     LegendNANA
07:00 2.3 1.5 94   0 11.3 100.25     LegendNANA
08:00 6.9 6.8 99   0 9.7 100.24     LegendNANA
09:00 11.2 10.6 96   0 14.5 100.29     LegendNANA
10:00 15.3 10.5 73 15 17 14.5 100.31     LegendNANA
11:00
12:00 19.4 8.7 50 17 19 14.5 100.21     LegendNANA
13:00 20.0 9.1 49 16 17 14.5 100.19     LegendNANA
14:00
15:00 20.3 7.8 44 14 15 14.5 100.15     LegendNANA
16:00 19.9 7.4 44 13 17 14.5 100.15     LegendNANA
17:00 18.8 7.5 48 14 15 14.5 100.15     LegendNANA
18:00 15.5 7.8 60 13 11 14.5 100.16     LegendNANA
19:00 13.1 7.6 69 14 11 14.5 100.24     LegendNANA
20:00 10.0 6.8 80 16 4 14.5 100.28     LegendNANA
21:00 9.8 6.9 82 16 13 14.5 100.28     LegendNANA
22:00 9.1 7.3 88 17 9 14.5 100.29     LegendNANA
23:00 6.4 5.8 96   0 14.5 100.29     LegendNANA

Notes on Data Quality.

Legend

  • E = Estimated
  • M = Missing
  • NA = Not Available
  • ‡ = Partner data that is not subject to review by the National Climate Archives
Date modified: